Date String (YYYY-MM-DD hh:mm:ss) UTC,Instrument flags,Ambient pressure (hPa),Sample flow (lpm),Bypass flow (lpm),Sample temperature (°C),Ambient temperature (°C),ASC tube jacket temperature (°C),LED temperature (°C),Box temperature (°C),Sample RH (%),Span deviation,Mass concentration (μg/m³),Mass concentration (μg/m³),Mass concentration (μg/m³)
DateTimeUTC,F1_M11,P_M11,Q1_M11,Q2_M11,T1_M11,T2_M11,T3_M11,T4_M11,T5_M11,U1_M11,ZSPAN_M11,X0_M11,X2_M11,X1_M11
2022-08-02 01:00:00,,0827.4,5.00,0.00,29.2,27.7,00.0,37.9,31.1,27.0,0001.2,0009.66,0006.41,0006.03
2022-08-02 01:01:00,,0827.4,4.99,0.00,29.2,27.9,00.0,38.0,31.2,26.6,0002.4,0009.50,0006.43,0006.05
2022-08-02 01:02:00,,0827.4,4.99,0.00,29.2,28.0,00.0,38.0,31.2,26.5,0002.4,0009.39,0006.44,0006.07
2022-08-02 01:03:00,,0827.4,5.00,0.00,29.3,28.2,00.0,38.0,31.3,26.6,0002.1,0009.72,0006.47,0006.10
2022-08-02 01:04:00,,0827.4,5.00,0.00,29.3,28.3,00.0,38.0,31.3,26.4,0001.8,0009.73,0006.49,0006.11
2022-08-02 01:05:00,,0827.4,5.00,0.00,29.4,28.1,00.0,38.0,31.3,26.5,0001.6,0009.75,0006.51,0006.12
2022-08-02 01:06:00,,0827.3,5.00,0.00,29.3,27.4,00.0,38.0,31.1,26.4,0001.1,0009.78,0006.54,0006.14
2022-08-02 01:07:00,,0827.4,4.99,0.00,29.3,27.0,00.0,38.0,31.0,26.0,0001.2,0009.70,0006.55,0006.14
2022-08-02 01:08:00,,0827.3,4.99,0.00,29.2,26.9,00.0,38.0,31.0,26.1,0001.3,0009.62,0006.54,0006.16
2022-08-02 01:09:00,,0827.3,5.00,0.00,29.1,27.0,00.0,37.9,30.9,26.1,0000.9,0009.47,0006.54,0006.16
2022-08-02 01:10:00,,0827.3,5.01,0.00,29.1,27.2,00.0,37.9,30.9,26.2,0000.9,0009.54,0006.60,0006.17
2022-08-02 01:11:00,,0827.3,4.99,0.00,29.1,27.3,00.0,37.9,31.0,26.0,0000.9,0009.52,0006.61,0006.18
2022-08-02 01:12:00,,0827.3,5.00,0.00,29.1,27.5,00.0,37.9,31.0,26.1,0000.5,0009.49,0006.62,0006.19
2022-08-02 01:13:00,,0827.3,5.00,0.00,29.2,27.7,00.0,37.9,31.1,25.9,0000.2,0009.46,0006.62,0006.20
2022-08-02 01:14:00,,0827.2,5.00,0.00,29.2,27.9,00.0,38.0,31.1,25.8,0000.4,0009.06,0006.60,0006.20
2022-08-02 01:15:00,,0827.3,5.00,0.00,29.2,28.0,00.0,38.0,31.2,25.7,0000.3,0009.07,0006.59,0006.21
2022-08-02 01:16:00,,0827.3,4.99,0.00,29.3,28.2,00.0,38.0,31.2,25.6,0000.0,0009.12,0006.58,0006.22
2022-08-02 01:17:00,,0827.3,5.00,0.00,29.3,28.3,00.0,38.0,31.3,25.7,0000.0,0009.05,0006.54,0006.21
2022-08-02 01:18:00,,0827.3,4.99,0.00,29.3,28.0,00.0,38.0,31.3,25.6,0000.0,0009.04,0006.52,0006.22
2022-08-02 01:19:00,,0827.3,5.01,0.00,29.3,27.2,00.0,38.0,31.0,25.7,0000.0,0008.99,0006.51,0006.21
2022-08-02 01:20:00,,0827.2,4.99,0.00,29.2,26.8,00.0,38.0,31.0,25.7,0000.0,0009.05,0006.52,0006.22
2022-08-02 01:21:00,,0827.3,5.00,0.00,29.2,26.8,00.0,37.9,30.9,25.8,0000.0,0008.91,0006.47,0006.22
2022-08-02 01:22:00,,0827.2,4.98,0.00,29.1,27.0,00.0,37.9,30.9,26.0,0000.0,0008.85,0006.45,0006.21
2022-08-02 01:23:00,,0827.2,5.01,0.00,29.1,27.1,00.0,37.9,30.9,26.1,0000.0,0008.87,0006.46,0006.21
2022-08-02 01:24:00,,0827.2,5.00,0.00,29.1,27.3,00.0,37.9,31.0,25.9,0000.0,0008.95,0006.48,0006.21
2022-08-02 01:25:00,,0827.2,5.00,0.00,29.1,27.5,00.0,37.9,31.0,25.7,0000.0,0009.07,0006.54,0006.21
2022-08-02 01:26:00,,0827.2,4.99,0.00,29.1,27.7,00.0,37.9,31.0,26.0,0000.0,0009.08,0006.58,0006.23
2022-08-02 01:27:00,,0827.2,5.00,0.00,29.2,27.9,00.0,37.9,31.1,26.1,0000.0,0009.08,0006.61,0006.23
2022-08-02 01:28:00,,0827.2,4.99,0.00,29.2,28.0,00.0,37.9,31.2,26.1,0000.0,0009.53,0006.62,0006.23
2022-08-02 01:29:00,,0827.2,4.99,0.00,29.2,28.1,00.0,38.0,31.2,26.1,0000.0,0009.58,0006.65,0006.23
2022-08-02 01:30:00,,0827.2,5.00,0.00,29.3,28.3,00.0,38.0,31.3,25.7,0000.0,0009.56,0006.68,0006.25
2022-08-02 01:31:00,,0827.2,5.00,0.00,29.3,28.3,00.0,38.0,31.3,25.8,0002.1,0009.55,0006.70,0006.27
2022-08-02 01:32:00,,0827.2,5.00,0.00,29.3,28.0,00.0,38.0,31.2,25.6,0003.3,0009.61,0006.73,0006.29
2022-08-02 01:33:00,,0827.2,4.99,0.00,29.3,27.2,00.0,38.0,31.0,25.9,0002.1,0009.72,0006.78,0006.30
2022-08-02 01:34:00,,0827.2,5.01,0.00,29.2,26.9,00.0,38.0,31.0,25.8,0002.4,0009.74,0006.79,0006.31
2022-08-02 01:35:00,,0827.2,5.00,0.00,29.2,26.9,00.0,37.9,30.9,25.9,0003.0,0009.70,0006.78,0006.33
2022-08-02 01:36:00,,0827.2,4.99,0.00,29.1,27.0,00.0,37.9,30.8,26.0,0002.8,0009.70,0006.75,0006.33
2022-08-02 01:37:00,,0827.2,5.01,0.00,29.1,27.2,00.0,37.9,30.9,25.6,0002.5,0009.85,0006.75,0006.34
2022-08-02 01:38:00,,0827.1,5.00,0.00,29.1,27.4,00.0,37.9,31.0,25.6,0002.4,0009.92,0006.74,0006.34
2022-08-02 01:39:00,,0827.2,5.00,0.00,29.1,27.6,00.0,37.9,31.0,25.4,0002.3,0010.29,0006.77,0006.35
2022-08-02 01:40:00,,0827.0,5.00,0.00,29.1,27.7,00.0,37.9,31.1,25.4,0002.4,0010.35,0006.77,0006.37
2022-08-02 01:41:00,,0827.0,5.01,0.00,29.2,27.9,00.0,37.9,31.1,24.7,0001.9,0010.36,0006.77,0006.37
2022-08-02 01:42:00,,0827.1,5.01,0.00,29.2,28.0,00.0,38.0,31.2,24.9,0001.5,0010.27,0006.75,0006.38
2022-08-02 01:43:00,,0827.2,5.01,0.00,29.2,28.2,00.0,38.0,31.2,24.7,0001.3,0010.28,0006.75,0006.38
2022-08-02 01:44:00,,0827.2,4.99,0.00,29.3,28.3,00.0,38.0,31.3,24.3,0001.4,0010.24,0006.75,0006.39
2022-08-02 01:45:00,,0827.0,5.00,0.00,29.3,28.4,00.0,38.0,31.3,24.4,0001.5,0010.24,0006.76,0006.40
2022-08-02 01:46:00,,0827.1,5.00,0.00,29.4,28.3,00.0,38.0,31.3,24.1,0001.0,0010.30,0006.78,0006.42
2022-08-02 01:47:00,,0827.1,4.99,0.00,29.3,27.5,00.0,38.0,31.1,24.2,0000.2,0010.25,0006.78,0006.42
2022-08-02 01:48:00,,0827.1,5.00,0.00,29.3,27.0,00.0,38.0,31.0,24.2,0000.0,0010.09,0006.77,0006.43
2022-08-02 01:49:00,,0827.0,5.00,0.00,29.2,26.9,00.0,38.0,30.9,24.3,0000.3,0009.89,0006.77,0006.44
2022-08-02 01:50:00,,0826.9,5.00,0.00,29.1,27.0,00.0,37.9,30.9,24.1,0000.0,0009.38,0006.73,0006.44
2022-08-02 01:51:00,,0827.0,4.99,0.00,29.1,27.1,00.0,37.9,30.9,24.1,0000.0,0008.99,0006.72,0006.43
2022-08-02 01:52:00,,0827.0,5.02,0.00,29.1,27.3,00.0,37.9,31.0,24.1,0000.0,0009.03,0006.69,0006.42
2022-08-02 01:53:00,,0827.1,4.99,0.00,29.1,27.5,00.0,37.9,31.0,24.0,0000.0,0009.27,0006.70,0006.42
2022-08-02 01:54:00,,0827.0,5.00,0.00,29.2,27.7,00.0,37.9,31.1,24.0,0000.0,0009.31,0006.74,0006.43
2022-08-02 01:55:00,,0827.0,5.00,0.00,29.2,27.8,00.0,37.9,31.1,23.8,0000.0,0009.32,0006.73,0006.43
2022-08-02 01:56:00,,0826.9,5.01,0.00,29.2,28.0,00.0,38.0,31.2,23.7,0000.0,0009.33,0006.74,0006.41
2022-08-02 01:57:00,,0826.9,5.00,0.00,29.3,28.1,00.0,38.0,31.2,23.7,0000.0,0009.39,0006.74,0006.41
2022-08-02 01:58:00,,0827.0,4.99,0.00,29.3,28.2,00.0,38.0,31.3,23.9,0000.0,0009.61,0006.72,0006.41
2022-08-02 01:59:00,,0826.9,5.00,0.00,29.3,28.3,00.0,38.0,31.3,23.8,0000.0,0009.59,0006.71,0006.40
